CTV913 WIMM-WIII

Flight info

Callsign CTV913
Flight time 1h 54m
Altitude 37000
Route OMBES T5 BUNIK
Aircraft A320/M-SDE2E3FGHIRWY/LB1

Departure

Time 2026-04-22 06:55
Airport Kualanamu International Airport (WIMM)

Arrival

Time 2026-04-22 08:50
Airport Soekarno-Hatta International Airport (WIII)
Time Latitude Longitude Altitude Speed Heading
2026-04-22 06:15 3.63506 98.88217 39 ft 0 kts 225°
2026-04-22 06:37 3.63521 98.88233 40 ft 4 kts 225°
2026-04-22 06:38 3.63538 98.88250 40 ft 2 kts 226°
2026-04-22 06:38 3.63552 98.88270 40 ft 4 kts 260°
2026-04-22 06:38 3.63549 98.88294 40 ft 4 kts 304°
2026-04-22 06:38 3.63542 98.88303 40 ft 0 kts 315°
2026-04-22 06:44 3.63550 98.88295 40 ft 5 kts 315°
2026-04-22 06:44 3.63580 98.88275 40 ft 7 kts 347°
2026-04-22 06:44 3.63637 98.88307 40 ft 6 kts 45°
2026-04-22 06:44 3.63664 98.88335 40 ft 5 kts 45°
2026-04-22 06:45 3.63685 98.88356 40 ft 4 kts 45°
2026-04-22 06:45 3.63699 98.88371 40 ft 2 kts 45°
2026-04-22 06:45 3.63709 98.88380 40 ft 1 kts 45°
2026-04-22 06:45 3.63712 98.88384 39 ft 0 kts 45°
2026-04-22 06:46 3.63713 98.88384 40 ft 0 kts 45°
2026-04-22 06:46 3.63714 98.88385 40 ft 2 kts 45°
2026-04-22 06:46 3.63747 98.88418 39 ft 9 kts 45°
2026-04-22 06:46 3.63804 98.88453 40 ft 10 kts
2026-04-22 06:47 3.63855 98.88425 39 ft 8 kts 316°
2026-04-22 06:47 3.63890 98.88390 38 ft 7 kts 315°
2026-04-22 06:47 3.63919 98.88361 40 ft 5 kts 315°
2026-04-22 06:47 3.63940 98.88339 40 ft 4 kts 315°
2026-04-22 06:48 3.63959 98.88320 39 ft 5 kts 315°
2026-04-22 06:48 3.63997 98.88282 40 ft 10 kts 315°
2026-04-22 06:48 3.64061 98.88219 40 ft 16 kts 315°
2026-04-22 06:48 3.64160 98.88121 39 ft 24 kts 315°
2026-04-22 06:49 3.64270 98.88010 38 ft 19 kts 315°
2026-04-22 06:49 3.64280 98.87931 38 ft 13 kts 230°
2026-04-22 06:49 3.64211 98.87862 38 ft 15 kts 225°
2026-04-22 06:49 3.64123 98.87773 39 ft 19 kts 225°
2026-04-22 06:50 3.64024 98.87675 39 ft 21 kts 225°
2026-04-22 06:50 3.63922 98.87573 38 ft 22 kts 225°
2026-04-22 06:50 3.63812 98.87464 39 ft 23 kts 225°
2026-04-22 06:50 3.63697 98.87350 37 ft 24 kts 225°
2026-04-22 06:51 3.63609 98.87248 40 ft 14 kts 259°
2026-04-22 06:51 3.63629 98.87162 37 ft 13 kts 248°
2026-04-22 06:51 3.63572 98.87100 39 ft 13 kts 225°
2026-04-22 06:51 3.63489 98.87017 38 ft 21 kts 225°
2026-04-22 06:52 3.63380 98.86908 39 ft 23 kts 225°
2026-04-22 06:52 3.63264 98.86793 39 ft 24 kts 225°
2026-04-22 06:52 3.63143 98.86672 39 ft 25 kts 225°
2026-04-22 06:52 3.63018 98.86548 38 ft 26 kts 225°
2026-04-22 06:53 3.62889 98.86419 39 ft 26 kts 225°
2026-04-22 06:53 3.62759 98.86290 40 ft 26 kts 224°
2026-04-22 06:53 3.62639 98.86171 39 ft 24 kts 225°
2026-04-22 06:53 3.62537 98.86070 38 ft 17 kts 224°
2026-04-22 06:54 3.62502 98.85998 39 ft 11 kts 268°
2026-04-22 06:54 3.62548 98.85916 36 ft 18 kts 316°
2026-04-22 06:54 3.62638 98.85917 35 ft 11 kts 44°
2026-04-22 06:54 3.62715 98.85993 36 ft 35 kts 45°
2026-04-22 06:55 3.63065 98.86342 36 ft 103 kts 45°
2026-04-22 06:55 3.63709 98.86981 38 ft 155 kts 45°
2026-04-22 06:55 3.64560 98.87828 253 ft 180 kts 45°
2026-04-22 06:55 3.65446 98.88745 882 ft 184 kts 52°
2026-04-22 06:56 3.65819 98.89937 1564 ft 184 kts 99°
2026-04-22 06:56 3.65410 98.91168 2048 ft 194 kts 115°
2026-04-22 06:56 3.64792 98.92454 2306 ft 216 kts 116°
2026-04-22 06:56 3.64098 98.93888 2574 ft 241 kts 116°
2026-04-22 06:57 3.63332 98.95466 2994 ft 262 kts 116°
2026-04-22 06:57 3.62574 98.97153 3733 ft 269 kts 110°
2026-04-22 06:57 3.61995 98.98944 4558 ft 272 kts 105°
2026-04-22 06:57 3.61503 99.00785 5390 ft 276 kts 104°
2026-04-22 06:58 3.61032 99.02651 6225 ft 278 kts 104°
2026-04-22 06:58 3.60555 99.04534 7027 ft 281 kts 104°
2026-04-22 06:58 3.60059 99.06433 7781 ft 284 kts 104°
2026-04-22 06:58 3.59545 99.08357 8502 ft 288 kts 104°
2026-04-22 06:59 3.59014 99.10308 9197 ft 292 kts 104°
2026-04-22 06:59 3.58471 99.12284 9876 ft 296 kts 105°
2026-04-22 06:59 3.57917 99.14287 10519 ft 303 kts 105°
2026-04-22 06:59 3.57332 99.16392 10702 ft 325 kts 105°
2026-04-22 07:00 3.56509 99.18579 10854 ft 347 kts 118°
2026-04-22 07:00 3.55188 99.20604 11254 ft 357 kts 125°
2026-04-22 07:00 3.53750 99.22650 11850 ft 362 kts 125°
2026-04-22 07:00 3.52303 99.24727 12436 ft 366 kts 125°
2026-04-22 07:01 3.50844 99.26833 13006 ft 370 kts 125°
2026-04-22 07:01 3.49372 99.28961 13600 ft 373 kts 125°
2026-04-22 07:01 3.47887 99.31107 14162 ft 377 kts 124°
2026-04-22 07:01 3.46388 99.33271 14732 ft 380 kts 124°
2026-04-22 07:02 3.44877 99.35451 15292 ft 383 kts 124°
2026-04-22 07:02 3.43353 99.37647 15853 ft 385 kts 124°
2026-04-22 07:02 3.41818 99.39856 16395 ft 388 kts 124°
2026-04-22 07:02 3.40271 99.42080 16909 ft 391 kts 124°
2026-04-22 07:03 3.38715 99.44320 17420 ft 393 kts 124°
2026-04-22 07:03 3.37147 99.46574 17901 ft 396 kts 124°
2026-04-22 07:03 3.35568 99.48840 18387 ft 398 kts 124°
2026-04-22 07:03 3.33980 99.51122 18856 ft 401 kts 124°
2026-04-22 07:04 3.32322 99.53373 19304 ft 404 kts 130°
2026-04-22 07:04 3.30296 99.55325 19737 ft 406 kts 141°
2026-04-22 07:04 3.27921 99.56872 20164 ft 410 kts 152°
2026-04-22 07:04 3.25281 99.57964 20579 ft 412 kts 160°
2026-04-22 07:05 3.22568 99.58924 20972 ft 415 kts 160°
2026-04-22 07:05 3.19839 99.59895 21371 ft 417 kts 160°
2026-04-22 07:05 3.17099 99.60875 21758 ft 419 kts 159°
2026-04-22 07:05 3.14344 99.61863 22133 ft 422 kts 159°
2026-04-22 07:06 3.11575 99.62858 22489 ft 424 kts 159°
2026-04-22 07:06 3.08792 99.63858 22846 ft 426 kts 159°
2026-04-22 07:06 3.05994 99.64865 23197 ft 428 kts 159°
2026-04-22 07:06 3.03181 99.65874 23528 ft 430 kts 159°
2026-04-22 07:07 3.00356 99.66889 23866 ft 432 kts 159°
2026-04-22 07:07 2.97558 99.67896 24187 ft 434 kts 159°
2026-04-22 07:07 2.94707 99.68920 24513 ft 436 kts 159°
2026-04-22 07:07 2.91842 99.69946 24820 ft 438 kts 159°
2026-04-22 07:08 2.88963 99.70973 25133 ft 440 kts 159°
2026-04-22 07:08 2.86069 99.72000 25418 ft 442 kts 159°
2026-04-22 07:08 2.83160 99.73026 25708 ft 444 kts 159°
2026-04-22 07:08 2.80239 99.74057 25989 ft 446 kts 159°
2026-04-22 07:09 2.77307 99.75098 26266 ft 448 kts 159°
2026-04-22 07:09 2.74366 99.76147 26536 ft 450 kts 159°
2026-04-22 07:09 2.71413 99.77202 26799 ft 452 kts 159°
2026-04-22 07:09 2.68449 99.78260 27065 ft 453 kts 160°
2026-04-22 07:10 2.65471 99.79321 27330 ft 455 kts 160°
2026-04-22 07:10 2.62484 99.80389 27593 ft 457 kts 158°
2026-04-22 07:10 2.59616 99.81756 27830 ft 458 kts 148°
2026-04-22 07:10 2.57018 99.83592 28073 ft 458 kts 138°
2026-04-22 07:11 2.54761 99.85841 28312 ft 459 kts 129°
2026-04-22 07:11 2.52696 99.88285 28543 ft 461 kts 129°
2026-04-22 07:11 2.50621 99.90734 28764 ft 462 kts 129°
2026-04-22 07:11 2.48535 99.93191 28993 ft 464 kts 129°
2026-04-22 07:12 2.46441 99.95654 29198 ft 466 kts 130°
2026-04-22 07:12 2.44335 99.98123 29402 ft 467 kts 130°
2026-04-22 07:12 2.42222 100.00602 29603 ft 469 kts 130°
2026-04-22 07:12 2.40103 100.03090 29809 ft 471 kts 130°
2026-04-22 07:13 2.38033 100.05525 30005 ft 472 kts 130°
2026-04-22 07:13 2.35929 100.08001 30206 ft 474 kts 130°
2026-04-22 07:13 2.33792 100.10515 30407 ft 475 kts 130°
2026-04-22 07:13 2.31653 100.13031 30669 ft 474 kts 130°
2026-04-22 07:14 2.29517 100.15542 30976 ft 473 kts 130°
2026-04-22 07:14 2.27373 100.18036 31281 ft 473 kts 131°
2026-04-22 07:14 2.25153 100.20454 31594 ft 471 kts 133°
2026-04-22 07:14 2.22863 100.22794 31894 ft 470 kts 135°
2026-04-22 07:15 2.20530 100.25080 32194 ft 469 kts 135°
2026-04-22 07:15 2.18186 100.27344 32502 ft 468 kts 135°
2026-04-22 07:15 2.15852 100.29605 32798 ft 467 kts 135°
2026-04-22 07:15 2.13538 100.31877 33091 ft 466 kts 135°
2026-04-22 07:16 2.11247 100.34161 33380 ft 465 kts 134°
2026-04-22 07:16 2.08977 100.36455 33671 ft 463 kts 134°
2026-04-22 07:16 2.06721 100.38750 33978 ft 462 kts 134°
2026-04-22 07:16 2.04473 100.41041 34267 ft 461 kts 134°
2026-04-22 07:17 2.02225 100.43324 34542 ft 460 kts 134°
2026-04-22 07:17 2.00001 100.45569 34784 ft 460 kts 134°
2026-04-22 07:17 1.97752 100.47829 35031 ft 459 kts 134°
2026-04-22 07:17 1.95498 100.50090 35262 ft 459 kts 134°
2026-04-22 07:18 1.93247 100.52348 35484 ft 458 kts 134°
2026-04-22 07:18 1.91002 100.54607 35714 ft 458 kts 134°
2026-04-22 07:18 1.88762 100.56866 35936 ft 457 kts 134°
2026-04-22 07:18 1.86525 100.59120 36143 ft 456 kts 134°
2026-04-22 07:19 1.84290 100.61373 36339 ft 456 kts 134°
2026-04-22 07:19 1.82053 100.63623 36515 ft 456 kts 134°
2026-04-22 07:19 1.79815 100.65874 36685 ft 456 kts 134°
2026-04-22 07:19 1.77576 100.68124 36842 ft 457 kts 134°
2026-04-22 07:20 1.75338 100.70374 36881 ft 456 kts 134°
2026-04-22 07:20 1.70883 100.74869 36869 ft 454 kts 134°
2026-04-22 07:21 1.66440 100.79345 36869 ft 453 kts 134°
2026-04-22 07:21 1.62008 100.83806 36863 ft 452 kts 134°
2026-04-22 07:22 1.57590 100.88253 36861 ft 450 kts 134°
2026-04-22 07:22 1.53212 100.92662 36866 ft 450 kts 134°
2026-04-22 07:23 1.48803 100.97090 36868 ft 449 kts 134°
2026-04-22 07:23 1.44398 101.01520 36864 ft 449 kts 134°
2026-04-22 07:24 1.40002 101.05946 36864 ft 449 kts 134°
2026-04-22 07:24 1.35609 101.10362 36860 ft 448 kts 134°
2026-04-22 07:25 1.31211 101.14779 36856 ft 448 kts 134°
2026-04-22 07:25 1.26817 101.19203 36853 ft 448 kts 134°
2026-04-22 07:26 1.22422 101.23628 36851 ft 448 kts 134°
2026-04-22 07:26 1.18769 101.27304 36847 ft 448 kts 134°
2026-04-22 07:27 1.14370 101.31718 36842 ft 448 kts 134°
2026-04-22 07:27 1.09978 101.36132 36834 ft 448 kts 134°
2026-04-22 07:28 1.03397 101.42759 36815 ft 448 kts 134°
2026-04-22 07:28 0.99007 101.47176 36816 ft 448 kts 134°
2026-04-22 07:29 0.94608 101.51591 36820 ft 448 kts 134°
2026-04-22 07:29 0.90243 101.55981 36832 ft 449 kts 134°
2026-04-22 07:30 0.85844 101.60406 36816 ft 449 kts 134°
2026-04-22 07:30 0.81441 101.64833 36829 ft 449 kts 134°
2026-04-22 07:31 0.77039 101.69261 36827 ft 449 kts 134°
2026-04-22 07:31 0.72635 101.73686 36817 ft 449 kts 134°
2026-04-22 07:32 0.68233 101.78107 36820 ft 449 kts 134°
2026-04-22 07:32 0.63838 101.82531 36819 ft 448 kts 134°
2026-04-22 07:33 0.59443 101.86954 36818 ft 448 kts 134°
2026-04-22 07:33 0.55046 101.91374 36820 ft 448 kts 134°
2026-04-22 07:34 0.50649 101.95798 36825 ft 449 kts 134°
2026-04-22 07:34 0.46249 102.00217 36827 ft 448 kts 134°
2026-04-22 07:35 0.41852 102.04635 36819 ft 448 kts 134°
2026-04-22 07:35 0.37455 102.09050 36819 ft 448 kts 134°
2026-04-22 07:36 0.33061 102.13468 36817 ft 448 kts 134°
2026-04-22 07:36 0.28698 102.17850 36818 ft 448 kts 134°
2026-04-22 07:37 0.24308 102.22262 36815 ft 447 kts 134°
2026-04-22 07:37 0.19921 102.26673 36814 ft 447 kts 134°
2026-04-22 07:38 0.15534 102.31083 36817 ft 447 kts 134°
2026-04-22 07:38 0.11144 102.35494 36813 ft 448 kts 134°
2026-04-22 07:39 0.06756 102.39907 36814 ft 447 kts 134°
2026-04-22 07:39 0.02365 102.44315 36824 ft 448 kts 134°
2026-04-22 07:40 -0.02023 102.48726 36822 ft 447 kts 134°
2026-04-22 07:40 -0.06407 102.53137 36827 ft 447 kts 134°
2026-04-22 07:41 -0.10789 102.57545 36830 ft 447 kts 134°
2026-04-22 07:41 -0.15169 102.61946 36821 ft 446 kts 134°
2026-04-22 07:42 -0.19546 102.66344 36815 ft 446 kts 134°
2026-04-22 07:42 -0.23920 102.70743 36819 ft 446 kts 134°
2026-04-22 07:43 -0.28260 102.75111 36816 ft 446 kts 134°
2026-04-22 07:43 -0.32634 102.79506 36816 ft 446 kts 134°
2026-04-22 07:44 -0.37007 102.83899 36815 ft 446 kts 134°
2026-04-22 07:44 -0.41379 102.88292 36835 ft 446 kts 134°
2026-04-22 07:45 -0.45760 102.92678 36814 ft 446 kts 134°
2026-04-22 07:45 -0.50135 102.97071 36813 ft 446 kts 134°
2026-04-22 07:46 -0.54504 103.01468 36814 ft 446 kts 134°
2026-04-22 07:46 -0.58876 103.05859 36817 ft 445 kts 134°
2026-04-22 07:47 -0.63237 103.10255 36816 ft 445 kts 134°
2026-04-22 07:47 -0.67601 103.14650 36829 ft 445 kts 134°
2026-04-22 07:48 -0.71963 103.19046 36828 ft 445 kts 134°
2026-04-22 07:48 -0.76332 103.23432 36823 ft 445 kts 134°
2026-04-22 07:49 -0.80701 103.27812 36818 ft 445 kts 134°
2026-04-22 07:49 -0.85023 103.32169 36821 ft 444 kts 134°
2026-04-22 07:50 -0.89395 103.36532 36815 ft 445 kts 137°
2026-04-22 07:50 -0.94194 103.40440 36820 ft 445 kts 140°
2026-04-22 07:51 -0.99012 103.44337 36829 ft 446 kts 140°
2026-04-22 07:51 -1.03834 103.48240 36833 ft 446 kts 140°
2026-04-22 07:52 -1.08652 103.52143 36833 ft 446 kts 140°
2026-04-22 07:52 -1.13468 103.56044 36831 ft 446 kts 140°
2026-04-22 07:53 -1.18286 103.59946 36832 ft 446 kts 140°
2026-04-22 07:53 -1.23103 103.63842 36824 ft 445 kts 140°
2026-04-22 07:54 -1.27919 103.67741 36829 ft 445 kts 140°
2026-04-22 07:54 -1.32734 103.71641 36818 ft 446 kts 140°
2026-04-22 07:55 -1.37551 103.75539 36820 ft 446 kts 140°
2026-04-22 07:55 -1.42366 103.79443 36828 ft 446 kts 140°
2026-04-22 07:56 -1.47183 103.83343 36815 ft 445 kts 140°
2026-04-22 07:56 -1.51999 103.87241 36819 ft 445 kts 140°
2026-04-22 07:57 -1.56812 103.91144 36831 ft 446 kts 140°
2026-04-22 07:57 -1.61593 103.95021 36835 ft 446 kts 140°
2026-04-22 07:58 -1.66409 103.98922 36824 ft 445 kts 140°
2026-04-22 07:58 -1.71224 104.02823 36826 ft 446 kts 140°
2026-04-22 07:59 -1.76044 104.06720 36830 ft 446 kts 140°
2026-04-22 07:59 -1.80864 104.10626 36828 ft 446 kts 140°
2026-04-22 08:00 -1.85680 104.14535 36832 ft 446 kts 140°
2026-04-22 08:00 -1.90499 104.18438 36831 ft 446 kts 140°
2026-04-22 08:01 -1.95321 104.22342 36829 ft 446 kts 140°
2026-04-22 08:01 -2.00138 104.26255 36835 ft 446 kts 140°
2026-04-22 08:02 -2.04956 104.30172 36833 ft 447 kts 140°
2026-04-22 08:02 -2.09791 104.34075 36833 ft 447 kts 140°
2026-04-22 08:03 -2.14621 104.37980 36829 ft 446 kts 140°
2026-04-22 08:03 -2.19443 104.41891 36817 ft 446 kts 140°
2026-04-22 08:04 -2.24266 104.45804 36832 ft 447 kts 140°
2026-04-22 08:04 -2.29090 104.49718 36816 ft 447 kts 140°
2026-04-22 08:05 -2.33917 104.53631 36830 ft 447 kts 140°
2026-04-22 08:05 -2.38743 104.57542 36822 ft 446 kts 140°
2026-04-22 08:06 -2.43532 104.61426 36823 ft 446 kts 140°
2026-04-22 08:06 -2.48356 104.65334 36819 ft 446 kts 140°
2026-04-22 08:07 -2.53178 104.69245 36823 ft 446 kts 140°
2026-04-22 08:07 -2.58008 104.73155 36830 ft 447 kts 140°
2026-04-22 08:08 -2.62836 104.77073 36822 ft 447 kts 140°
2026-04-22 08:08 -2.67664 104.80997 36824 ft 447 kts 140°
2026-04-22 08:09 -2.72497 104.84910 36818 ft 447 kts 140°
2026-04-22 08:09 -2.77325 104.88830 36818 ft 447 kts 140°
2026-04-22 08:10 -2.82152 104.92750 36820 ft 447 kts 140°
2026-04-22 08:10 -2.86948 104.96639 36825 ft 447 kts 140°
2026-04-22 08:11 -2.91780 105.00560 36818 ft 447 kts 140°
2026-04-22 08:11 -2.96610 105.04484 36820 ft 447 kts 140°
2026-04-22 08:12 -3.01441 105.08407 36830 ft 447 kts 140°
2026-04-22 08:12 -3.06271 105.12331 36816 ft 447 kts 140°
2026-04-22 08:13 -3.11105 105.16255 36831 ft 447 kts 140°
2026-04-22 08:13 -3.15873 105.20134 36816 ft 448 kts 140°
2026-04-22 08:14 -3.20704 105.24057 36819 ft 448 kts 140°
2026-04-22 08:14 -3.25547 105.27979 36819 ft 448 kts 140°
2026-04-22 08:15 -3.30323 105.31926 36810 ft 448 kts 139°
2026-04-22 08:15 -3.35093 105.35939 36805 ft 448 kts 139°
2026-04-22 08:16 -3.39869 105.39951 36800 ft 448 kts 139°
2026-04-22 08:16 -3.44656 105.43951 36799 ft 448 kts 139°
2026-04-22 08:17 -3.49449 105.47949 36799 ft 449 kts 139°
2026-04-22 08:17 -3.54249 105.51945 36797 ft 449 kts 139°
2026-04-22 08:18 -3.59046 105.55951 36797 ft 449 kts 139°
2026-04-22 08:18 -3.63839 105.59963 36796 ft 449 kts 139°
2026-04-22 08:19 -3.67827 105.63298 36794 ft 449 kts 139°
2026-04-22 08:19 -3.72623 105.67303 36794 ft 449 kts 139°
2026-04-22 08:20 -3.77427 105.71312 36793 ft 449 kts 139°
2026-04-22 08:20 -3.82228 105.75325 36793 ft 450 kts 139°
2026-04-22 08:21 -3.87032 105.79339 36793 ft 450 kts 139°
2026-04-22 08:21 -3.91835 105.83356 36793 ft 450 kts 139°
2026-04-22 08:22 -3.96644 105.87369 36793 ft 450 kts 139°
2026-04-22 08:22 -4.01450 105.91381 36793 ft 450 kts 139°
2026-04-22 08:23 -4.06245 105.95402 36791 ft 450 kts 139°
2026-04-22 08:23 -4.11051 105.99416 36791 ft 450 kts 139°
2026-04-22 08:24 -4.15860 106.03436 36794 ft 450 kts 139°
2026-04-22 08:24 -4.20671 106.07459 36796 ft 450 kts 139°
2026-04-22 08:25 -4.23043 106.09445 36657 ft 451 kts 139°
2026-04-22 08:25 -4.25451 106.11462 36413 ft 450 kts 139°
2026-04-22 08:25 -4.27842 106.13470 36158 ft 449 kts 139°
2026-04-22 08:25 -4.30243 106.15487 35909 ft 450 kts 139°
2026-04-22 08:26 -4.32644 106.17499 35659 ft 450 kts 139°
2026-04-22 08:26 -4.35047 106.19509 35407 ft 451 kts 139°
2026-04-22 08:26 -4.37462 106.21526 35157 ft 452 kts 139°
2026-04-22 08:26 -4.39888 106.23553 34361 ft 457 kts 139°
2026-04-22 08:27 -4.42339 106.25604 33473 ft 461 kts 139°
2026-04-22 08:27 -4.44796 106.27665 32850 ft 458 kts 139°
2026-04-22 08:27 -4.47233 106.29712 32247 ft 455 kts 140°
2026-04-22 08:27 -4.49646 106.31733 31638 ft 451 kts 140°
2026-04-22 08:28 -4.52045 106.33742 31055 ft 448 kts 140°
2026-04-22 08:28 -4.54426 106.35735 30465 ft 444 kts 140°
2026-04-22 08:28 -4.56791 106.37713 29880 ft 441 kts 140°
2026-04-22 08:28 -4.59139 106.39676 29310 ft 438 kts 140°
2026-04-22 08:29 -4.61471 106.41623 28741 ft 435 kts 140°
2026-04-22 08:29 -4.63782 106.43559 28181 ft 431 kts 140°
2026-04-22 08:29 -4.66074 106.45483 27618 ft 428 kts 140°
2026-04-22 08:29 -4.68346 106.47393 27077 ft 424 kts 140°
2026-04-22 08:30 -4.70571 106.49262 26551 ft 420 kts 140°
2026-04-22 08:30 -4.72830 106.51153 26025 ft 416 kts 140°
2026-04-22 08:30 -4.75042 106.53003 25516 ft 412 kts 140°
2026-04-22 08:30 -4.77230 106.54833 25032 ft 407 kts 140°
2026-04-22 08:31 -4.79394 106.56644 24542 ft 403 kts 140°
2026-04-22 08:31 -4.81534 106.58436 24084 ft 399 kts 140°
2026-04-22 08:31 -4.85783 106.61917 23126 ft 391 kts 146°
2026-04-22 08:32 -4.88112 106.63229 22672 ft 388 kts 155°
2026-04-22 08:32 -4.90556 106.64334 22192 ft 385 kts 155°
2026-04-22 08:32 -4.92990 106.65438 21727 ft 382 kts 155°
2026-04-22 08:32 -4.95397 106.66534 21251 ft 380 kts 155°
2026-04-22 08:33 -4.97793 106.67628 20777 ft 377 kts 154°
2026-04-22 08:33 -5.00179 106.68719 20302 ft 375 kts 154°
2026-04-22 08:33 -5.02544 106.69802 19818 ft 373 kts 154°
2026-04-22 08:33 -5.04901 106.70882 19326 ft 372 kts 154°
2026-04-22 08:34 -5.07248 106.71959 18856 ft 370 kts 154°
2026-04-22 08:34 -5.09584 106.73028 18378 ft 368 kts 154°
2026-04-22 08:34 -5.11911 106.74090 17901 ft 367 kts 154°
2026-04-22 08:34 -5.14228 106.75148 17440 ft 365 kts 154°
2026-04-22 08:35 -5.16533 106.76199 17004 ft 362 kts 154°
2026-04-22 08:35 -5.18821 106.77242 16498 ft 362 kts 154°
2026-04-22 08:35 -5.21097 106.78275 16068 ft 358 kts 154°
2026-04-22 08:35 -5.23374 106.79303 15639 ft 356 kts 154°
2026-04-22 08:36 -5.25621 106.80316 15212 ft 351 kts 154°
2026-04-22 08:36 -5.27835 106.81316 14442 ft 347 kts 154°
2026-04-22 08:36 -5.30028 106.82288 13875 ft 341 kts 159°
2026-04-22 08:36 -5.32350 106.82789 13631 ft 342 kts 173°
2026-04-22 08:37 -5.34719 106.83009 13381 ft 341 kts 174°
2026-04-22 08:37 -5.37082 106.83219 13131 ft 340 kts 174°
2026-04-22 08:37 -5.39409 106.83422 12883 ft 339 kts 174°
2026-04-22 08:37 -5.41771 106.83627 12569 ft 335 kts 174°
2026-04-22 08:38 -5.44049 106.83826 12247 ft 330 kts 174°
2026-04-22 08:38 -5.46319 106.84024 11926 ft 326 kts 174°
2026-04-22 08:38 -5.48582 106.84224 11504 ft 325 kts 174°
2026-04-22 08:38 -5.50834 106.84446 11069 ft 325 kts 173°
2026-04-22 08:39 -5.53078 106.84684 10624 ft 325 kts 173°
2026-04-22 08:39 -5.55321 106.84929 10224 ft 323 kts 173°
2026-04-22 08:39 -5.57508 106.85170 10095 ft 312 kts 173°
2026-04-22 08:39 -5.59646 106.85402 9871 ft 304 kts 173°
2026-04-22 08:40 -5.61735 106.85628 9551 ft 303 kts 173°
2026-04-22 08:40 -5.63839 106.85855 9172 ft 302 kts 174°
2026-04-22 08:40 -5.65926 106.86078 8689 ft 304 kts 174°
2026-04-22 08:40 -5.68004 106.86297 8404 ft 298 kts 174°
2026-04-22 08:41 -5.70059 106.86513 8012 ft 296 kts 174°
2026-04-22 08:41 -5.72092 106.86728 7499 ft 291 kts 174°
2026-04-22 08:41 -5.74106 106.86943 6823 ft 288 kts 174°
2026-04-22 08:41 -5.76087 106.87158 6198 ft 284 kts 174°
2026-04-22 08:42 -5.78034 106.87369 5657 ft 279 kts 174°
2026-04-22 08:42 -5.79957 106.87576 5136 ft 277 kts 174°
2026-04-22 08:42 -5.81852 106.87778 4627 ft 280 kts 174°
2026-04-22 08:42 -5.83807 106.87985 4221 ft 277 kts 175°
2026-04-22 08:43 -5.85698 106.88181 3876 ft 272 kts 175°
2026-04-22 08:43 -5.87533 106.88372 3776 ft 259 kts 175°
2026-04-22 08:43 -5.89279 106.88559 3658 ft 246 kts 175°
2026-04-22 08:43 -5.90949 106.88734 3538 ft 236 kts 175°
2026-04-22 08:44 -5.92559 106.88906 3430 ft 231 kts 175°
2026-04-22 08:44 -5.94152 106.89076 3318 ft 230 kts 175°
2026-04-22 08:44 -5.95734 106.89054 3206 ft 227 kts 195°
2026-04-22 08:44 -5.97142 106.88395 3063 ft 223 kts 220°
2026-04-22 08:45 -5.98317 106.87373 2908 ft 224 kts 222°
2026-04-22 08:45 -5.99491 106.86349 2754 ft 223 kts 222°
2026-04-22 08:45 -6.00668 106.85331 2589 ft 224 kts 222°
2026-04-22 08:45 -6.01847 106.84314 2449 ft 222 kts 222°
2026-04-22 08:46 -6.03001 106.83317 2298 ft 215 kts 222°
2026-04-22 08:46 -6.04083 106.82314 2167 ft 207 kts 233°
2026-04-22 08:46 -6.04764 106.81088 2103 ft 199 kts 250°
2026-04-22 08:46 -6.05269 106.79797 2102 ft 198 kts 250°
2026-04-22 08:47 -6.05780 106.78515 2099 ft 198 kts 250°
2026-04-22 08:47 -6.06292 106.77235 2101 ft 197 kts 250°
2026-04-22 08:47 -6.06802 106.75953 2009 ft 198 kts 250°
2026-04-22 08:47 -6.07301 106.74705 1721 ft 187 kts 250°
2026-04-22 08:48 -6.07772 106.73531 1453 ft 176 kts 251°
2026-04-22 08:48 -6.08216 106.72421 1231 ft 166 kts 251°
2026-04-22 08:48 -6.08634 106.71379 1011 ft 157 kts 252°
2026-04-22 08:48 -6.09033 106.70377 779 ft 153 kts 252°
2026-04-22 08:49 -6.09421 106.69392 580 ft 151 kts 252°
2026-04-22 08:49 -6.09805 106.68414 394 ft 150 kts 251°
2026-04-22 08:49 -6.10197 106.67443 209 ft 150 kts 251°
2026-04-22 08:49 -6.10582 106.66476 45 ft 144 kts 250°
2026-04-22 08:50 -6.10906 106.65661 43 ft 102 kts 248°
2026-04-22 08:50 -6.11097 106.65178 40 ft 48 kts 248°
2026-04-22 08:50 -6.11212 106.64900 42 ft 30 kts 239°
2026-04-22 08:50 -6.11349 106.64763 39 ft 19 kts 215°
2026-04-22 08:51 -6.11466 106.64711 40 ft 18 kts 173°
2026-04-22 08:51 -6.11578 106.64758 40 ft 17 kts 156°
2026-04-22 08:51 -6.11673 106.64796 43 ft 12 kts 159°
2026-04-22 08:51 -6.11769 106.64770 43 ft 19 kts 227°
2026-04-22 08:52 -6.11871 106.64675 41 ft 21 kts 214°
2026-04-22 08:52 -6.11955 106.64645 40 ft 12 kts 179°
2026-04-22 08:52 -6.12011 106.64595 39 ft 11 kts 247°
2026-04-22 08:52 -6.12038 106.64529 39 ft 10 kts 248°
2026-04-22 08:53 -6.12065 106.64462 38 ft 13 kts 248°
2026-04-22 08:53 -6.12137 106.64419 39 ft 13 kts 161°
2026-04-22 08:53 -6.12220 106.64452 38 ft 15 kts 159°
2026-04-22 08:53 -6.12330 106.64495 38 ft 20 kts 159°
2026-04-22 08:54 -6.12471 106.64550 38 ft 23 kts 159°
2026-04-22 08:54 -6.12620 106.64609 38 ft 23 kts 158°
2026-04-22 08:54 -6.12776 106.64672 41 ft 24 kts 158°
2026-04-22 08:54 -6.12907 106.64725 57 ft 16 kts 158°
2026-04-22 08:55 -6.12996 106.64761 52 ft 14 kts 158°
2026-04-22 08:55 -6.13090 106.64800 40 ft 15 kts 158°
2026-04-22 08:55 -6.13135 106.64875 38 ft 13 kts 74°
2026-04-22 08:55 -6.13104 106.64957 38 ft 12 kts 69°
2026-04-22 08:56 -6.13105 106.65027 37 ft 10 kts 126°
2026-04-22 08:56 -6.13160 106.65058 38 ft 9 kts 156°
2026-04-22 08:56 -6.13211 106.65081 36 ft 8 kts 155°
2026-04-22 08:56 -6.13224 106.65120 36 ft 6 kts 69°
2026-04-22 08:57 -6.13210 106.65141 38 ft 1 kts 56°
2026-04-22 08:57 -6.13206 106.65146 37 ft 0 kts 56°
2026-04-22 08:57 -6.13206 106.65147 37 ft 0 kts 56°